Regional Weather Roundup
Issued by NWS State College, PA

Home | Current Version | Previous Version | Text Only | Print | Product List | Glossary Off
Versions: 1 2 3 4 5 6 7 8 9 10 11 12 13 14 15 16 17 18 19 20 21 22 23 24 25 26 27 28 29 30 31 32 33 34 35 36 37 38 39 40 41 42 43 44 45 46 47 48 49 50

000
ASUS41 KCTP 251403
RWRCTP

REGIONAL WEATHER ROUNDUP
NATIONAL WEATHER SERVICE STATE COLLEGE PA
900 AM EST TUE NOV 25 2014

Note: "fair" indicates few or no clouds below 12,000 feet with no
significant weather and/or obstructions to visibility.

* = STATION THAT DOES NOT REPORT PRECIPITATION /E.G. RAIN...SNOW...ETC/
    THUNDER OR FOG.

PAZ002>004-007>009-013>016-020>023-029>032-251500-
WESTERN PENNSYLVANIA

CITY           SKY/WX    TMP DP  RH WIND       PRES   REMARKS
ERIE           CLOUDY    39  25  57 SW15      29.93R
MEADVILLE      CLOUDY    35  25  66 SW9G21    29.94R
FRANKLIN*      CLOUDY    36  25  64 SW15G30   29.97R
NEW CASTLE       N/A     37  28  70 SW10G17   30.00R
BEAVER COUNTY  CLOUDY    37  30  75 SW13G21   29.99R
BUTLER*        PTSUNNY   39  28  65 SW14G23   30.01R
PITTSBURGH INT MOSUNNY   40  31  70 SW13      30.00R
PITTSBURGH     SUNNY     39  29  67 SW12      30.00R
INDIANA*       MOSUNNY   39  32  75 SW13      30.03S
LATROBE        NOT AVBL
WASHINGTON CO* SUNNY     39  30  70 SW10G18   30.04R
$$

PAZ004>006-010>012-017>019-024>028-033>037-041-042-045-046-049>053-251500-
CENTRAL PENNSYLVANIA

CITY           SKY/WX    TMP DP  RH WIND       PRES   REMARKS
BRADFORD       PTSUNNY   35  26  69 VRB7G23   29.91R
DUBOIS         PTSUNNY   37  30  75 SW13      29.95R
CLEARFIELD     PTSUNNY   39  30  70 SW14G22   29.97R
JOHNSTOWN      CLOUDY    38  27  64 W16G24    29.98R
ALTOONA        CLOUDY    43  30  60 SW13      30.01R
STATE COLLEGE  MOSUNNY   43  30  61 SW15G23   29.99R
WILLIAMSPORT   CLOUDY    47  29  49 VRB7      29.98R
SELINSGROVE    PTSUNNY   46  30  53 SW3       30.02R
FT INDIANTOWN  CLOUDY    48  30  49 W10       30.03R
CAPITAL CITY   CLOUDY    49  32  52 W8        30.04R
HARRISBURG     CLOUDY    49  32  52 W6        30.03R
YORK           CLOUDY    49  30  48 W8        30.04R
$$

PAZ038>040-043-044-047-048-054-055-060>062-067>071-251500-
EASTERN PENNSYLVANIA

CITY           SKY/WX    TMP DP  RH WIND       PRES   REMARKS
SCRANTON       PTSUNNY   45  28  51 SW8       29.98R
MOUNT POCONO   CLOUDY    41  26  55 W17G29    29.94R
ALLENTOWN      CLOUDY    49  29  46 NW9       30.01R
QUAKERTOWN*    CLOUDY    48  32  53 NW7       30.01R
READING        CLOUDY    50  31  48 NW7       30.01R
LANCASTER      CLOUDY    48  32  53 NW8       30.02R
COATESVILLE    CLOUDY    50  34  53 NW12      30.02R
POTTSTOWN      CLOUDY    50  32  50 NW8       30.02R
BLUE BELL      CLOUDY    52  32  46 W9G16     30.00R
DOYLESTOWN     CLOUDY    50  32  50 NW14G20   30.00R
WILLOW GROVE   NOT AVBL
NORTH PHILA      N/A     55  31  39 W13       30.02R
PHILADELPHIA   CLOUDY    56  35  45 NW13      30.02R
$$



USA.gov is the U.S. government's official web portal to all federal, state and local government web resources and services.